{"data":{"norad_id":63753,"epoch":"2026-09-20T05:20:13.604352Z","epoch_age_seconds":173706,"freshness":"STALE","line1":"1 63753U 25089C   26263.22237968  .00145376  00000+0  11150-2 0  9991","line2":"2 63753  42.9998 199.3797 0003028 250.0431 110.0110 15.70875217 80735","mean_motion":15.70875217,"eccentricity":0.0003028,"inclination_deg":42.9998,"raan_deg":199.3797,"arg_perigee_deg":250.0431,"mean_anomaly_deg":110.011,"bstar":0.001115,"rev_number":8073,"period_min":91.668643340752,"perigee_km":354.35519056215,"apogee_km":358.43362278203,"semimajor_km":6734.5314066721,"source":"CELESTRAK","updated_at":"2026-09-21T09:00:35.092815Z"}}